Location: Calvera
(42.3882°N, 0.6137°E)
Time: 19:48:42
(UTC+00:00)

H-2A R/B - Pass Details

Date: 28 October 2020
Orbit: 500 x 540 km, 97.3° (Epoch: 22 November)

Event Time Altitude Azimuth Distance (km) Brightness Sun altitude
Rises 05:28:29 0° 15° (NNE) 2,649 6.4 -11.3°
Reaches altitude 10° 05:30:36 10° 19° (NNE) 1,764 5.5 -10.9°
Maximum altitude 05:34:22 63° 100° (E) 591 3.3 -10.2°
Drops below altitude 10° 05:38:10 10° 183° (S) 1,772 5.5 -9.5°
Sets 05:40:18 0° 186° (S) 2,663 6.4 -9.1°
